Weather reports worldwide

Advertisment
Banja Luka, Bosnia/Herzegovina (14542): temperature & dewpoint: 08.12.2019 03:00:00 - 14.12.2019 03:00:00 (CET)Banja Luka, Bosnia/Herzegovina (14542): wind speed: 08.12.2019 03:00:00 - 14.12.2019 03:00:00 (CET)Banja Luka, Bosnia/Herzegovina (14542): wind direction: 08.12.2019 03:00:00 - 14.12.2019 03:00:00 (CET)Banja Luka, Bosnia/Herzegovina (14542): reduced air pressure: 08.12.2019 03:00:00 - 14.12.2019 03:00:00 (CET)Banja Luka, Bosnia/Herzegovina (14542): visibility: 08.12.2019 03:00:00 - 14.12.2019 03:00:00 (CET)
Date & Time tt [°C] td [°C] ff [km/h] ff [kn] dd ppp [hPa] vv [km]
14.12.2019 03:00:00 - - - - - - -
14.12.2019 02:00:00 - - - - - - -
14.12.2019 01:00:00 4,2 3,6 4 2 WNW 990,4 1,0
14.12.2019 00:00:00 - - - - - - -
13.12.2019 23:00:00 - - - - - - -
13.12.2019 22:00:00 4,5 2,5 4 2 NNE 987,5 1,0
13.12.2019 21:00:00 4,5 2,5 4 2 NNW 987,6 1,0
13.12.2019 20:00:00 4,3 2,5 4 2 NNW 988,0 1,0
13.12.2019 19:00:00 4,5 2,5 4 2 WNW 988,0 1,0
13.12.2019 18:00:00 4,5 2,3 4 2 NNW 987,8 1,0
13.12.2019 17:00:00 - - - - - - -
13.12.2019 16:00:00 - - - - - - -
13.12.2019 15:00:00 - - - - - - -
13.12.2019 14:00:00 - - - - - - -
13.12.2019 13:00:00 - - - - - - -
13.12.2019 12:00:00 2,1 1,2 4 2 N 995,2 0,4
13.12.2019 11:00:00 - - - - - - -
13.12.2019 10:00:00 - - - - - - -
13.12.2019 09:00:00 - - - - - - -
13.12.2019 08:00:00 0,4 -0,1 4 2 NNE 998,5 0,1
13.12.2019 07:00:00 0,6 0,3 0 0 N 999,0 0,1
13.12.2019 06:00:00 0,9 0,2 4 2 NNE 999,8 1,0
13.12.2019 05:00:00 1,1 0,4 4 2 NNE 1000,2 1,0
13.12.2019 04:00:00 - - - - - - -
13.12.2019 03:00:00 - - - - - - -
13.12.2019 02:00:00 - - - - - - -
13.12.2019 01:00:00 - - - - - - -
13.12.2019 00:00:00 - - - - - - -
12.12.2019 23:00:00 - - - - - - -
12.12.2019 22:00:00 1,1 0,4 0 0 N 1005,0 1,0
12.12.2019 21:00:00 1,1 0,4 4 2 NNW 1005,6 1,0
12.12.2019 20:00:00 - - - - - - -
12.12.2019 19:00:00 - - - - - - -
12.12.2019 18:00:00 - - - - - - -
12.12.2019 17:00:00 - - - - - - -
12.12.2019 16:00:00 - - - - - - -
12.12.2019 15:00:00 2,1 0,4 0 0 N 1007,8 1,0
12.12.2019 14:00:00 2,4 0,5 4 2 NNW 1007,8 1,0
12.12.2019 13:00:00 - - - - - - -
12.12.2019 12:00:00 - - - - - - -
12.12.2019 11:00:00 - - - - - - -
12.12.2019 10:00:00 - - - - - - -
12.12.2019 09:00:00 - - - - - - -
12.12.2019 08:00:00 1,8 -0,6 4 2 NNW 1009,4 1,0
12.12.2019 07:00:00 1,3 -0,2 7 4 NNW 1009,7 3,0
12.12.2019 06:00:00 1,2 -0,2 4 2 NNW 1009,9 4,0
12.12.2019 05:00:00 1,2 -0,2 7 4 NNE 1010,1 4,0
12.12.2019 04:00:00 1,4 -0,7 7 4 NNE 1010,5 6
12.12.2019 03:00:00 - - - - - - -
12.12.2019 02:00:00 - - - - - - -
12.12.2019 01:00:00 2,0 -0,6 7 4 NNE 1012,1 15
12.12.2019 00:00:00 - - - - - - -
11.12.2019 23:00:00 - - - - - - -
11.12.2019 22:00:00 2,3 -0,6 7 4 NNE 1014,1 15
11.12.2019 21:00:00 2,3 0,2 4 2 NNW 1014,8 15
11.12.2019 20:00:00 2,7 -0,2 4 2 NE 1015,5 15
11.12.2019 19:00:00 2,8 -0,7 4 2 NNW 1016,0 15
11.12.2019 18:00:00 - - - - - - -
11.12.2019 17:00:00 - - - - - - -
11.12.2019 16:00:00 3,6 0,0 4 2 NNE 1016,9 15
11.12.2019 15:00:00 4,0 -0,1 4 2 NNW 1017,5 18
11.12.2019 14:00:00 - - - - - - -
11.12.2019 13:00:00 4,0 0,0 4 2 NNW 1019,5 18
11.12.2019 12:00:00 - - - - - - -
11.12.2019 11:00:00 3,2 -0,1 4 2 NNW 1021,5 18
11.12.2019 10:00:00 - - - - - - -
11.12.2019 09:00:00 - - - - - - -
11.12.2019 08:00:00 - - - - - - -
11.12.2019 07:00:00 2,9 0,5 0 0 N 1021,9 20
11.12.2019 06:00:00 2,9 0,3 0 0 N 1022,5 10
11.12.2019 05:00:00 - - - - - - -
11.12.2019 04:00:00 3,2 -0,4 0 0 N 1023,0 10
11.12.2019 03:00:00 - - - - - - -
11.12.2019 02:00:00 - - - - - - -
11.12.2019 01:00:00 3,6 1,8 0 0 N 1024,0 10
11.12.2019 00:00:00 - - - - - - -
10.12.2019 23:00:00 - - - - - - -
10.12.2019 22:00:00 4,6 -0,3 4 2 W 1024,8 10
10.12.2019 21:00:00 5,5 1,5 0 0 N 1024,9 10
10.12.2019 20:00:00 5,5 1,5 4 2 N 1024,8 10
10.12.2019 19:00:00 6,0 -1,2 18 10 N 1023,7 10
10.12.2019 18:00:00 6,4 -0,3 18 10 NNE 1023,1 10
10.12.2019 17:00:00 6,5 1,1 18 10 NNE 1022,2 10
10.12.2019 16:00:00 6,6 2,0 18 10 N 1021,1 10
10.12.2019 15:00:00 7,6 2,9 22 12 N 1020,1 15
10.12.2019 14:00:00 7,6 4,1 7 4 NNW 1019,3 8
10.12.2019 13:00:00 7,1 5,7 4 2 NNW 1019,2 2,0
10.12.2019 12:00:00 6,8 5,2 4 2 NNW 1018,9 2,0
10.12.2019 11:00:00 - - - - - - -
10.12.2019 10:00:00 - - - - - - -
10.12.2019 09:00:00 6,4 5,6 0 0 N 1016,9 2,0
10.12.2019 08:00:00 6,8 4,8 0 0 N 1015,6 2,0
10.12.2019 07:00:00 6,3 5,3 4 2 WSW 1015,2 2,0
10.12.2019 06:00:00 6,3 5,3 7 4 WNW 1013,3 2,0
10.12.2019 05:00:00 6,8 5,6 7 4 WSW 1012,1 2,0
10.12.2019 04:00:00 7,2 5,8 4 2 WSW 1011,3 2,0
10.12.2019 03:00:00 - - - - - - -
10.12.2019 02:00:00 - - - - - - -
10.12.2019 01:00:00 - - - - - - -
10.12.2019 00:00:00 - - - - - - -
09.12.2019 23:00:00 - - - - - - -
09.12.2019 22:00:00 7,6 6,4 4 2 ESE 1007,1 2,0
09.12.2019 21:00:00 7,9 6,6 0 0 N 1007,1 4,0
09.12.2019 20:00:00 8,1 6,8 0 0 N 1007,1 4,0
09.12.2019 19:00:00 8,1 6,8 0 0 N 1007,1 10
09.12.2019 18:00:00 8,8 6,9 4 2 W 1007,3 10
09.12.2019 17:00:00 9,4 7,5 4 2 ESE 1007,3 10
09.12.2019 16:00:00 10,6 7,8 4 2 W 1007,3 10
09.12.2019 15:00:00 11,4 7,7 4 2 NNW 1007,7 12
09.12.2019 14:00:00 - - - - - - -
09.12.2019 13:00:00 - - - - - - -
09.12.2019 12:00:00 - - - - - - -
09.12.2019 11:00:00 - - - - - - -
09.12.2019 10:00:00 - - - - - - -
09.12.2019 09:00:00 - - - - - - -
09.12.2019 08:00:00 - - - - - - -
09.12.2019 07:00:00 - - - - - - -
09.12.2019 06:00:00 - - - - - - -
09.12.2019 05:00:00 - - - - - - -
09.12.2019 04:00:00 - - - - - - -
09.12.2019 03:00:00 - - - - - - -
09.12.2019 02:00:00 - - - - - - -
09.12.2019 01:00:00 - - - - - - -
09.12.2019 00:00:00 - - - - - - -
08.12.2019 23:00:00 - - - - - - -
08.12.2019 22:00:00 - - - - - - -
08.12.2019 21:00:00 - - - - - - -
08.12.2019 20:00:00 - - - - - - -
08.12.2019 19:00:00 - - - - - - -
08.12.2019 18:00:00 - - - - - - -
08.12.2019 17:00:00 - - - - - - -
08.12.2019 16:00:00 - - - - - - -
08.12.2019 15:00:00 - - - - - - -
08.12.2019 14:00:00 - - - - - - -
08.12.2019 13:00:00 - - - - - - -
08.12.2019 12:00:00 - - - - - - -
08.12.2019 11:00:00 - - - - - - -
08.12.2019 10:00:00 - - - - - - -
08.12.2019 09:00:00 - - - - - - -
08.12.2019 08:00:00 - - - - - - -
08.12.2019 07:00:00 - - - - - - -
08.12.2019 06:00:00 - - - - - - -
08.12.2019 05:00:00 - - - - - - -
08.12.2019 04:00:00 - - - - - - -
08.12.2019 03:00:00 - - - - - - -

tt = temperature
td = dewpoint
ff = wind speed
dd = wind direction
ppp = reduced air pressure
vv = visibility

Next stations